Weather History for Malmstrom AFB, MT

Change the Weather History Date:

Thursday, January 17, 2013

  Actual Average (KGTF) Record (KGTF)
Temperature  
Mean Temperature 39 °F 25 °F  
Max Temperature 46 °F 36 °F 61 °F (1914)
Min Temperature 32 °F 15 °F -29 °F (1930)
Degree Days  
Heating Degree Days 26 40  
Month to date heating degree days 685  
Since 1 July heating degree days 3902  
Cooling Degree Days 0 0  
Month to date cooling degree days 0  
Year to date cooling degree days 0  
Moisture  
Dew Point 20 °F    
Average Humidity 46    
Maximum Humidity 64    
Minimum Humidity 35    
Precipitation  
Precipitation 0.00 in 0.02 in 0.47 in (1954)
Month to date precipitation 0.29  
Year to date precipitation 0.29  
Snow  
Snow 0.00 in 0.20 in 4.50 in (1954)
Month to date snowfall 4.9  
Since 1 July snowfall 28.1  
Snow Depth -    
Sea Level Pressure  
Sea Level Pressure 30.25 in    
Wind  
Wind Speed 22 mph (SSW)    
Max Wind Speed 34 mph    
Max Gust Speed 45 mph    
Visibility 10 miles    
Events      
T = Trace of Precipitation, MM = Missing Value Source: NWS Daily Summary

Daily Weather History Graph

Daily Weather History Graph

Search for Another Location

Airport:

Trip Planner

Search our weather history database for the weather conditions in past years. The results will help you decide how hot, cold, wet, or windy it might be!

Date:

Astronomy

Jan. 17, 2013 Rise Set
Actual Time 8:06 AM MST 5:04 PM MST
Civil Twilight 7:31 AM MST 5:38 PM MST
Nautical Twilight 6:53 AM MST 6:16 PM MST
Astronomical Twilight 6:17 AM MST 6:53 PM MST
Moon 10:43 AM MST (1/17) No Moon Set
Length of Visible Light 10h 06m
Length of Day
8h 58m
Waxing Crescent, 38% of the Moon is Illuminated
Jan 17
Waxing Crescent
Jan 18
First Quarter
Jan 26
Full
Feb 3
Last Quarter
Feb 10
New

Hourly Weather History & Observations

Time (MST) Temp. Windchill Dew Point Humidity Pressure Visibility Wind Dir Wind Speed Gust Speed Precip Events Conditions
1:56 AM 32.0 °F 21.2 °F 21.0 °F 64% 30.39 in 10.0 mi South 16.1 mph - N/A   Clear
2:56 AM 33.1 °F 21.9 °F 21.0 °F 61% 30.38 in 10.0 mi SSW 18.4 mph - N/A   Clear
3:56 AM 36.0 °F 25.0 °F 21.0 °F 55% 30.35 in 10.0 mi SSW 20.7 mph - N/A   Clear
4:56 AM 35.1 °F 24.8 °F 19.9 °F 54% 30.35 in 10.0 mi SSW 17.3 mph - N/A   Clear
5:56 AM 37.0 °F 26.7 °F 19.0 °F 48% 30.33 in 10.0 mi SSW 19.6 mph - N/A   Clear
6:56 AM 37.0 °F 25.6 °F 18.0 °F 46% 30.32 in 10.0 mi SSW 24.2 mph - N/A   Clear
7:56 AM 37.0 °F 26.2 °F 17.1 °F 44% 30.33 in 10.0 mi SSW 21.9 mph - N/A   Clear
8:56 AM 37.0 °F 25.9 °F 19.0 °F 48% 30.34 in 10.0 mi SSW 23.0 mph - N/A   Clear
9:56 AM 39.9 °F 29.2 °F 18.0 °F 41% 30.32 in 10.0 mi SSW 25.3 mph 33.4 mph N/A   Clear
10:56 AM 43.0 °F 32.9 °F 19.0 °F 38% 30.31 in 10.0 mi SSW 27.6 mph 34.5 mph N/A   Clear
11:56 AM 43.0 °F 34.0 °F 21.0 °F 42% 30.29 in 10.0 mi SSW 21.9 mph - N/A   Clear
12:56 PM 44.1 °F 35.2 °F 21.0 °F 40% 30.26 in 10.0 mi SSW 23.0 mph - N/A   Clear
1:56 PM 46.0 °F 37.6 °F 19.9 °F 35% 30.22 in 10.0 mi SSW 24.2 mph - N/A   Clear
2:56 PM 44.1 °F 35.0 °F 21.0 °F 40% 30.21 in 10.0 mi SSW 24.2 mph - N/A   Clear
3:56 PM 41.0 °F 32.2 °F 24.1 °F 51% 30.20 in 10.0 mi South 18.4 mph - N/A   Clear
4:56 PM 43.0 °F 33.3 °F 23.0 °F 45% 30.18 in 10.0 mi SSW 25.3 mph - N/A   Clear
6:56 PM 42.1 °F 32.1 °F 23.0 °F 47% 30.16 in 10.0 mi SSW 25.3 mph - N/A   Clear
7:56 PM 41.0 °F 30.2 °F 23.0 °F 49% 30.16 in 10.0 mi SSW 27.6 mph - N/A   Clear
8:56 PM 43.0 °F 34.0 °F 21.0 °F 42% 30.15 in 10.0 mi SSW 21.9 mph - N/A   Clear
9:56 PM 45.0 °F 34.7 °F 19.9 °F 37% 30.08 in 10.0 mi SSW 33.4 mph 44.9 mph N/A   Clear
10:56 PM 44.1 °F 33.3 °F 19.9 °F 38% 30.07 in 10.0 mi SSW 34.5 mph 42.6 mph N/A   Clear
11:56 PM 43.0 °F 32.7 °F 19.9 °F 40% 30.10 in 10.0 mi SSW 28.8 mph - N/A   Clear